Location: Bagnolo San Vito
(45.0833°N, 10.8833°E)
Time: 00:18:37
(UTC+00:00)

Nadezhda 3 Rocket - Pass Details

Date: 03 March 2021
Orbit: 957 x 999 km, 82.9° (Epoch: 17 April)

Event Time Altitude Azimuth Distance (km) Brightness Sun altitude
Rises 17:27:27 0° 356° (N) 3,725 7.0 -4.5°
Reaches altitude 10° 17:30:07 10° 2° (N) 2,775 6.3 -4.9°
Maximum altitude 17:36:13 46° 75° (ENE) 1,317 4.3 -6.0°
Drops below altitude 10° 17:42:18 10° 148° (SSE) 2,762 6.1 -7.1°
Sets 17:44:56 0° 154° (SSE) 3,705 6.8 -7.6°
